Location: Chamerau
(49.1969°N, 12.7525°E)
Time: 03:17:03
(UTC+00:00)

Lacrosse 4 Rocket - Pass Details

Date: 18 September 2020
Orbit: 543 x 615 km, 68.0° (Epoch: 24 October)

Event Time Altitude Azimuth Distance (km) Brightness Sun altitude
Rises 20:58:40 0° 328° (NNW) 2,717 6.0 -32.7°
Reaches altitude 10° 21:00:53 10° 331° (NNW) 1,823 4.8 -33.0°
Enters shadow 21:02:05 19° 334° (NNW) 1,347 3.9 -33.1°
